TimeCST,TemperatureF,Dew PointF,Humidity,Sea Level PressureIn,VisibilityMPH,Wind Direction,Wind SpeedMPH,Gust SpeedMPH,PrecipitationIn,Events,Conditions,WindDirDegrees,DateUTC
12:54 AM,41.0,33.1,73,29.93,10.0,SSE,8.1,-,0.00,Rain,Light Rain,150,2013-02-07 06:54:00
1:54 AM,39.9,36.0,86,29.91,10.0,SSE,10.4,-,0.03,Rain,Light Rain,160,2013-02-07 07:54:00
2:54 AM,41.0,37.0,86,29.91,10.0,South,6.9,-,0.00,,Overcast,170,2013-02-07 08:54:00
3:54 AM,42.1,37.0,82,29.90,10.0,SE,3.5,-,0.00,Rain,Light Rain,140,2013-02-07 09:54:00
4:30 AM,41.0,37.0,86,29.89,10.0,Calm,Calm,-,0.00,Rain,Light Rain,0,2013-02-07 10:30:00
4:54 AM,39.0,36.0,89,29.91,7.0,Calm,Calm,-,0.01,Rain,Light Rain,0,2013-02-07 10:54:00
5:21 AM,39.0,37.0,93,29.89,6.0,Calm,Calm,-,0.00,Rain,Light Rain,0,2013-02-07 11:21:00
5:54 AM,39.9,37.9,93,29.91,3.0,South,3.5,-,0.02,Rain,Light Rain,190,2013-02-07 11:54:00
6:38 AM,39.0,37.9,96,29.90,2.5,Calm,Calm,-,0.01,Rain,Light Rain,0,2013-02-07 12:38:00
6:54 AM,39.9,37.9,93,29.91,2.5,Calm,Calm,-,0.02,Rain,Light Rain,0,2013-02-07 12:54:00
7:32 AM,39.0,37.0,93,29.91,2.0,NW,5.8,-,0.05,Rain,Light Rain,310,2013-02-07 13:32:00
7:54 AM,39.0,37.9,96,29.93,1.0,NNW,6.9,-,0.07,Rain,Light Rain,330,2013-02-07 13:54:00
8:28 AM,39.0,36.0,89,29.94,2.0,WNW,12.7,-,0.03,Rain,Light Rain,300,2013-02-07 14:28:00
8:37 AM,37.9,36.0,93,29.94,2.0,NW,15.0,-,0.04,Rain,Light Rain,320,2013-02-07 14:37:00
8:54 AM,37.0,35.1,93,29.96,2.0,NNW,9.2,-,0.05,Rain,Light Rain,330,2013-02-07 14:54:00
9:07 AM,37.0,34.0,89,29.95,4.0,NNW,9.2,-,0.01,Rain,Light Rain,340,2013-02-07 15:07:00
9:32 AM,37.0,35.1,93,29.95,2.5,North,11.5,-,0.03,Rain,Rain,350,2013-02-07 15:32:00
9:44 AM,37.0,34.0,89,29.95,3.0,North,15.0,-,0.05,Rain,Light Rain,350,2013-02-07 15:44:00
9:54 AM,37.0,34.0,89,29.98,3.0,North,12.7,-,0.06,Rain,Light Rain,350,2013-02-07 15:54:00
10:54 AM,35.1,33.1,92,29.99,3.0,North,11.5,-,0.04,Rain,Light Rain,350,2013-02-07 16:54:00
11:54 AM,34.0,30.9,89,30.00,2.5,NW,13.8,-,0.00,,Overcast,320,2013-02-07 17:54:00
12:02 PM,34.0,30.9,89,29.98,2.5,NW,18.4,-,N/A,,Overcast,310,2013-02-07 18:02:00
12:54 PM,33.1,30.0,89,30.00,1.8,NNW,15.0,-,N/A,,Overcast,330,2013-02-07 18:54:00
1:20 PM,33.1,30.0,89,29.98,2.0,NNW,13.8,24.2,N/A,,Overcast,330,2013-02-07 19:20:00
1:34 PM,33.1,30.0,89,29.98,1.8,NNW,13.8,-,N/A,,Overcast,330,2013-02-07 19:34:00
1:54 PM,33.1,30.0,89,30.01,1.8,NNW,15.0,-,N/A,,Overcast,330,2013-02-07 19:54:00
2:54 PM,32.0,28.9,88,30.03,2.5,NNW,13.8,-,N/A,,Overcast,340,2013-02-07 20:54:00
3:54 PM,32.0,28.0,85,30.05,2.0,NNW,12.7,-,N/A,,Overcast,330,2013-02-07 21:54:00
4:54 PM,30.9,28.0,89,30.08,2.0,NNW,12.7,-,N/A,,Overcast,330,2013-02-07 22:54:00
5:42 PM,30.9,27.0,85,30.08,3.0,NNW,12.7,-,N/A,,Overcast,330,2013-02-07 23:42:00
5:54 PM,30.9,27.0,85,30.12,4.0,NNW,12.7,-,N/A,,Overcast,340,2013-02-07 23:54:00
6:54 PM,30.9,26.1,82,30.15,7.0,NNW,15.0,23.0,N/A,,Overcast,340,2013-02-08 00:54:00
7:54 PM,30.0,25.0,82,30.16,7.0,North,18.4,-,N/A,,Overcast,350,2013-02-08 01:54:00
8:54 PM,30.0,25.0,82,30.17,7.0,NNW,13.8,-,N/A,,Overcast,340,2013-02-08 02:54:00
9:54 PM,30.0,25.0,82,30.19,8.0,North,12.7,-,N/A,,Overcast,350,2013-02-08 03:54:00
10:34 PM,28.9,25.0,85,30.18,7.0,North,12.7,-,0.00,Snow,Light Snow,350,2013-02-08 04:34:00
10:54 PM,28.9,25.0,85,30.21,7.0,North,15.0,-,0.00,Snow,Light Snow,350,2013-02-08 04:54:00
11:54 PM,28.9,24.1,82,30.23,8.0,NNW,11.5,-,0.00,Snow,Light Snow,340,2013-02-08 05:54:00